Flag for Estonia Weather past 2 weeks in Tallinn, Estonia

Now
37 °F

Drizzle. Fog.


Feels Like: 32 °F
Forecast: 34 / 39 °F
Wind: 7 mph from South

Location: Tallinn

Current Time: Mar 1, 2015 at 5:48:43 PM

Latest Report: Mar 1, 2015 at 5:20 PM


Visibility: 3 mi

Pressure: 29.74 "Hg

Humidity: 93%

Dew point: 36 °F

Location of TallinnLocation

Historic Weather in Tallinn — Graph

°F

Tallinn temperature yesterday

Maximum temperature yesterday: 36 °F (at 12:50 PM)
Minimum temperature yesterday: 32 °F (at 2:20 AM)
Average temperature yesterday: 34 °F

Past Weeks' High & Low Weather Summary

 TemperatureHumidityPressure
High43 °F (Feb 25, 12:50 PM)100% (Feb 18, 5:20 AM)30.83 "Hg (Feb 18, 5:20 AM)
Low14 °F (Feb 16, 4:20 AM)37% (Feb 16, 2:50 PM)29.24 "Hg (Feb 22, 7:50 AM)
Average33 °F84%29.98 "Hg
* Reported Feb 14 4:20 PM — Mar 1 4:20 PM, Tallinn, Weather by CustomWeather, © 2015

Note: Actual official high and low records may vary slightly from our data, if they occured in-between our weather recording intervals... More about our weather records

Advertising

Tallinn weather history for previous 24 hours

 ConditionsComfort  
Time TempWeatherWind HumidityBarometerVisibility
4:20 PM
Sun, Mar 1
37 °FLight rain. Fog.9 mph93%29.77 "Hg3 mi
3:50 PM37 °FDrizzle. Fog.10 mph93%29.77 "Hg2 mi
3:20 PM37 °FMostly cloudy.9 mph93%29.77 "Hg4 mi
2:50 PM37 °FLow clouds.9 mph93%29.77 "Hg4 mi
12:20 PM36 °FFog.9 mph100%29.83 "Hg3 mi
11:50 AM36 °FDrizzle. Fog.9 mph93%29.83 "Hg1 mi
11:20 AM36 °FDrizzle. Fog.9 mph93%29.83 "Hg3 mi
10:50 AM34 °FLight rain. Fog.9 mph100%29.86 "Hg2 mi
10:20 AM34 °FLight rain. Fog.8 mph100%29.86 "Hg2 mi
9:50 AM34 °FLow clouds.8 mph93%29.86 "Hg4 mi
9:20 AM34 °FLow clouds.8 mph93%29.86 "HgN/A
8:50 AM34 °FBroken clouds.8 mph93%29.86 "HgN/A
8:20 AM34 °FScattered clouds.8 mph93%29.86 "HgN/A
7:50 AM32 °FScattered clouds.8 mph93%29.86 "HgN/A
7:20 AM32 °FBroken clouds.7 mph93%29.89 "HgN/A
6:50 AM32 °FLow clouds.8 mph93%29.89 "HgN/A
6:20 AM32 °FPartly cloudy.7 mph93%29.89 "HgN/A
5:50 AM32 °FPassing clouds.7 mph93%29.89 "HgN/A
5:20 AM32 °FPassing clouds.8 mph93%29.89 "HgN/A
4:50 AM32 °FPassing clouds.8 mph87%29.89 "HgN/A
4:20 AM32 °FClear.9 mph87%29.89 "Hg10 mi
3:50 AM32 °FClear.7 mph87%29.92 "Hg10 mi
3:20 AM32 °FClear.8 mph87%29.92 "Hg10 mi
2:50 AM32 °FPassing clouds.9 mph87%29.92 "HgN/A
2:20 AM34 °FPassing clouds.7 mph81%29.92 "HgN/A
1:50 AM34 °FOvercast.7 mph81%29.92 "HgN/A
1:20 AM34 °FPassing clouds.7 mph87%29.95 "HgN/A
12:50 AM34 °FOvercast.6 mph87%29.95 "HgN/A
12:20 AM34 °FOvercast.6 mph87%29.95 "HgN/A
11:50 PM
Sat, Feb 28
34 °FOvercast.7 mph87%29.95 "HgN/A
11:20 PM34 °FOvercast.7 mph87%29.95 "HgN/A
10:50 PM34 °FOvercast.7 mph87%29.95 "HgN/A
10:20 PM34 °FOvercast.7 mph87%29.95 "HgN/A
9:50 PM34 °FOvercast.7 mph87%29.95 "HgN/A
9:20 PM34 °FOvercast.6 mph87%29.95 "HgN/A
8:50 PM34 °FOvercast.7 mph87%29.98 "HgN/A
8:20 PM34 °FOvercast.7 mph87%29.95 "HgN/A
7:50 PM34 °FOvercast.8 mph87%29.95 "HgN/A
7:20 PM34 °FOvercast.8 mph87%29.95 "HgN/A
6:50 PM34 °FOvercast.7 mph87%29.95 "HgN/A
6:20 PM36 °FMostly cloudy.6 mph81%29.95 "HgN/A
5:50 PM36 °FOvercast.5 mph81%29.95 "HgN/A
5:20 PM36 °FMore clouds than sun.5 mph75%29.95 "HgN/A
Weather by CustomWeather, © 2015

See weather overviewHow to use our weather pages